Regional Weather Roundup
Issued by NWS

Home | Current Version | Previous Version | Graphics & Text | Print | Product List | Glossary On
Versions: 1 2 3 4 5 6 7 8 9 10 11 12 13 14 15 16 17 18 19 20 21 22 23 24 25 26 27 28 29 30 31 32 33 34 35 36 37 38 39 40 41 42 43 44 45 46 47 48 49 50
000
ASUS43 KLOT 300108
RWRIL

ILLINOIS REGIONAL WEATHER ROUNDUP
NATIONAL WEATHER SERVICE CHICAGO/ROMEOVILLE IL
800 PM CDT FRI MAY 29 2015

NOTE: "FAIR" INDICATES FEW OR NO CLOUDS BELOW 12,000 FEET WITH NO
SIGNIFICANT WEATHER AND/OR OBSTRUCTIONS TO VISIBILITY.

* THESE STATIONS ARE NOT UNDER NWS QUALITY CONTROL. THEY ALSO MAY NOT
  REPORT WEATHER SUCH AS PRECIPITATION OR FOG.

ILZ001-002-007-009-015-016-024-300200-
NORTHWEST ILLINOIS

CITY           SKY/WX    TMP DP  RH WIND       PRES   REMARKS
MOLINE         CLOUDY    74  64  71 W5        29.91R
STERLING*      CLOUDY    75  64  69 W8        29.92R
SAVANNA*       CLOUDY    74  64  71 SW7       29.91R
$$

ILZ003-004-008-010-011-017-018-300200-
NORTH CENTRAL ILLINOIS

CITY           SKY/WX    TMP DP  RH WIND       PRES   REMARKS
ROCKFORD       CLOUDY    70  67  90 SE3       29.92F
FREEPORT*      CLOUDY    70  68  94 S3        29.93R
ROCHELLE*      CLOUDY    73  65  74 N5        29.92S
DE KALB*       CLOUDY    71  64  76 NW6       29.93S
PERU*          CLOUDY    78  63  59 SW8       29.93R HX  80
$$

ILZ005-006-012>014-019>023-300200-
NORTHEAST ILLINOIS

CITY           SKY/WX    TMP DP  RH WIND       PRES   REMARKS
CHICAGO-OHARE  MOCLDY    79  63  57 SW6       29.91R HX  80
CHICAGO-MIDWAY MOCLDY    82  65  56 SW10      29.92R HX  84
AURORA         MOCLDY    79  63  57 S6        29.92S HX  80
LANSING*       MOCLDY    73  64  73 SW9       29.94S
JOLIET*        MOCLDY    78  69  73 S6        29.93R HX  81
WAUKEGAN       PTCLDY    76  65  68 VRB3      29.90R
DUPAGE AIRPORT MOCLDY    77  64  64 SW9       29.92R
KANKAKEE*      LGT RAIN  71  68  90 SW7       29.96S
WHEELING       PTCLDY    79  62  56 SW6       29.92R HX  80
MORRIS*        MOCLDY    77  67  70 SW9       29.92R
ROMEOVILLE*    MOCLDY    76  66  71 S9        29.93R
NORTHERLY ISL    N/A     80  62  54 S9          N/A  HX  81
$$

LMZ740>746-300200-
SOUTHERN LAKE MICHIGAN

STATION/POSITION SKY/WX   TEMP    WIND        PRES    VSBY  WAVE
                          AIR SEA DIR/SP/G                  HT/PER
                          (F)     (DEG/KT/KT) (MB)    (MI)  (FT/S)
SOUTHERN BUOY              48 38  180/  8/ 10 1012.7S         0
HARRISON CRIB              80     230/ 12/ 15   N/A
BURNHAM HARBOR             80     200/  7/ 12   N/A
CALUMET HARBOR             80     230/  5/ 10   N/A
BURNS HARBOR               80     220/ 18/ 26 1013.5R
MICHIGAN CITY              82     180/ 15/ 19   N/A
MICHIGAN CITY 6N           65 56  330/  4/  8   N/A           1/ 2
ST. JOSEPH                 67 59  280/  8/ 12   N/A           1
$$

ILZ025>027-034>036-040-047-049-050-058-095>099-300200-
WEST-CENTRAL ILLINOIS

CITY           SKY/WX    TMP DP  RH WIND       PRES   REMARKS
QUINCY         CLOUDY    72  66  81 S5        29.96R
GALESBURG*     CLOUDY    74  64  72 SW6       29.94R
MACOMB*        CLOUDY    74  65  73 SW7       29.97S
JACKSONVILLE*  MOCLDY    77  67  71 SW3       29.97R
PITTSFIELD*    MOCLDY    74  67  79 SW3       29.99R
$$

ILZ028>032-037-038-041>044-048-051>054-059>061-300200-
CENTRAL ILLINOIS

CITY           SKY/WX    TMP DP  RH WIND       PRES   REMARKS
PONTIAC        RAIN      72  69  91 S13       29.96S
BLOOMINGTON    CLOUDY    69  68  97 S9        29.99S
DECATUR        CLOUDY    71  65  81 E3        29.99S
PEORIA         CLOUDY    79  66  64 SW8       29.95R HX  81
LACON*         CLOUDY    76  64  66 SW3       29.93S
LINCOLN*       CLOUDY    70  67  89 CALM      29.95S
SPRINGFIELD    CLOUDY    73  69  87 S3        29.98R
TAYLORVILLE    CLOUDY    72  66  83 S8        29.99R
$$

ILZ033-039-045-046-055>057-062-063-300200-
EAST-CENTRAL ILLINOIS

CITY           SKY/WX    TMP DP  RH WIND       PRES   REMARKS
CHAMPAIGN      CLOUDY    73  64  73 W7        30.00R
DANVILLE*      MOCLDY    79  65  60 SW9       29.96R HX  81
RANTOUL*       HVY RAIN  70  66  88 W10       30.01R
MATTOON        CLOUDY    70  65  84 SW9       30.00S
PARIS*         MOCLDY    77  66  69 SW10      30.01R
$$

ILZ079-100>102-300200-
SOUTHWEST ILLINOIS

CITY           SKY/WX    TMP DP  RH WIND       PRES   REMARKS
BELLEVILLE     CLOUDY    69  69 100 S1        29.98F
CAHOKIA*       CLOUDY    73  69  87 SE5       29.98S
SPARTA*        CLOUDY    68  67  96 S25G38    30.05R VSB 1
$$

ILZ064>066-069>071-074>076-080>082-084>086-088>090-092>094-300200-
SOUTH-CENTRAL ILLINOIS

CITY           SKY/WX    TMP DP  RH WIND       PRES   REMARKS
CARBONDALE     MOCLDY    73  66  78 N9        30.00R
CAIRO*         PTCLDY    80  67  65 SE7       29.99S HX  82
EFFINGHAM*     CLOUDY    69  65  89 SE3       30.03F
MARION         PTCLDY    77  70  78 CALM      30.01S
MT. VERNON     CLOUDY    68  63  83 CALM      30.05R
CENTRALIA*     HVY RAIN  67  65  94 E6        30.03S
SALEM*         RAIN      69  66  91 SE6       30.04R
METROPOLIS*    PTCLDY    80  68  67 S5        30.00S HX  82
$$

ILZ067-068-072-073-078-083-087-091-300200-
SOUTHEAST ILLINOIS

CITY           SKY/WX    TMP DP  RH WIND       PRES   REMARKS
LAWRENCEVILLE  CLEAR     79  67  66 S10       30.01  HX  81
FLORA*         LGT RAIN  69  64  85 W9G20     30.04R
FAIRFIELD*     CLOUDY    71  64  78 NW6       30.03R
HARRISBURG*    PTCLDY    80  67  65 S5        30.02S HX  82
ROBINSON*      CLOUDY    80  65  61 S8        30.01R HX  82
CARMI*         CLEAR     79  61  53 S6        30.01R HX  80
$$

ABBREVIATIONS USED IN REMARKS
   TC - TEMPERATURE IN CELSIUS
  WCI - WIND CHILL INDEX
   HX - HEAT INDEX
  VSB - VISIBILITY
$$




USA.gov is the U.S. government's official web portal to all federal, state and local government web resources and services.